sat.trackr.live / text

‹ back to catalog

QIANFAN-37

NORAD 62238 · 2024-232B

PAYLOAD ACTIVE UNKNOWN

§ Identity

Operator
Country
PRC
Launch date
2024-12-05
Launch site
TAISC
Launch vehicle
Mass (kg)
RCS (m²)

External: N2YO · Heavens-Above · Gunter

§ Orbital elements

Epoch: 2026-09-22T21:00:54.062208Z

Period
106.59 min
Inclination
89.0160°
Eccentricity
0.0001839
Mean motion
13.51031126 rev/d
Perigee alt
1,067.1 km
Apogee alt
1,069.8 km
Semi-major
7,446.6 km
B*
1.3198e-4
RAAN
12.8032°
Arg perigee
87.6857°
Mean anomaly
272.4505°
Rev number
13,753

§ Raw data

QIANFAN-371 62238U 24232B   26265.87562572  .00000097  00000+0  13198-3 0  99972 62238  89.0160  12.8032 0001839  87.6857 272.4505 13.51031126137532

JSON: /api/v1/satellites/62238 · /tle

For live sub-satellite position, see the globe view (requires WebGL).

§ Visibility from observer

Set your observer location to see the next 7 days of passes ≥ 10°. The values pass through the URL so the page stays shareable.

No JS? Fill the form by hand. The geolocation button needs JavaScript.